Hourly Data Report for October 18, 2014

All times are specified in Local Standard Time (LST). Add 1 hour to adjust for Daylight Saving Time where and when it is observed.

ARVIAT A
NUNAVUT

61°05'38.000" N
94°04'18.000" W
10.40 m
2300427
71174
YEK

Download Data

Hourly Data (October 2014)
Hourly Data Report for October 18, 2014
Temp Definition
°C
Dew Point Temp Definition
°C
Rel Hum Definition
%
Wind Dir Definition
10's deg

Wind Spd Definition
km/h
Visibility Definition
km
Stn Press Definition
kPa
Hmdx Definition


Wind Chill Definition


Weather Definition


TIME
00:00 Legend Double Dagger -4.4 -5.5 92 26 9 16.1 102.49   -8 LegendNANA
01:00 Legend Double Dagger -4.7 -6.0 91 25 13 16.1 102.46   -10 LegendNANA
02:00 Legend Double Dagger -5.9 -6.9 93 27 11 16.1 102.43   -11 LegendNANA
03:00 Legend Double Dagger -5.9 -6.0 99 27 8 6.4 102.38   -10 Fog
04:00 Legend Double Dagger -5.4 -5.7 98   0 16.1 102.29     LegendNANA
05:00 Legend Double Dagger -5.0 -5.5 96   0 16.1 102.24     LegendNANA
06:00 Legend Double Dagger -3.9 -5.0 92 21 18 16.1 102.19   -10 LegendNANA
07:00 Legend Double Dagger -4.3 -5.0 95 22 13 16.1 102.12   -9 LegendNANA
08:00 Legend Double Dagger -2.6 -4.8 85 18 30 16.1 102.03   -10 LegendNANA
09:00 Legend Double Dagger -2.1 -4.0 87 16 28 16.1 101.93   -9 LegendNANA
10:00 Legend Double Dagger -1.8 -4.0 85 17 39 16.1 101.80   -10 LegendNANA
11:00 Legend Double Dagger -1.4 -3.8 84 16 43 16.1 101.69   -10 LegendNANA
12:00 Legend Double Dagger -0.9 -3.4 83 17 45 16.1 101.60   -9 LegendNANA
13:00 Legend Double Dagger -0.5 -2.7 85 18 43 16.1 101.53   -8 LegendNANA
14:00 Legend Double Dagger -0.3 -2.6 84 17 46 16.1 101.44   -8 LegendNANA
15:00 Legend Double Dagger -0.1 -2.5 84 18 43 16.1 101.33   -8 LegendNANA
16:00 Legend Double Dagger 0.0 -2.4 84 17 52 16.1 101.22   -8 LegendNANA
17:00 Legend Double Dagger -0.1 -2.4 84 17 46 16.1 101.11   -8 LegendNANA
18:00 Legend Double Dagger 0.1 -1.7 88 17 43 16.1 101.04     LegendNANA
19:00 Legend Double Dagger 0.3 -1.5 88 17 45 16.1 100.96     LegendNANA
20:00 Legend Double Dagger 0.4 -1.5 87 18 48 16.1 100.89     LegendNANA
21:00 Legend Double Dagger 0.4 -1.3 88 18 46 16.1 100.84     LegendNANA
22:00 Legend Double Dagger 0.4 -1.4 88 18 45 16.1 100.80     Rain
23:00 Legend Double Dagger 0.4 -1.2 89 18 48 16.1 100.70     LegendNANA

Notes on Data Quality.

Legend

  • E = Estimated
  • M = Missing
  • NA = Not Available
  • ‡ = Partner data that is not subject to review by the National Climate Archives
Date modified: